Location: Augustenthal
(51.7167°N, 10.2833°E)
Time: 15:56:36
(UTC+00:00)

Cosmos 1455 Rocket - Pass Details

Date: 28 September 2021
Orbit: 606 x 628 km, 82.5° (Epoch: 21 October)

Event Time Altitude Azimuth Distance (km) Brightness Sun altitude
Exits shadow 21:26:23 16° 348° (NNW) 1,632 5.8 -36.2°
Drops below altitude 10° 21:27:24 10° 356° (N) 1,988 6.3 -36.3°
Sets 21:29:49 0° 5° (N) 2,902 7.2 -36.5°
